{"data":{"norad_id":53024,"intl_designator":"2022-076AQ","name":"STARLINK-4289","alt_names":[],"object_type":"PAYLOAD","status":"ACTIVE","operator":null,"country":"US","launch_date":"2022-07-07","launch_site_code":"AFETR","launch_vehicle":null,"mission":null,"orbit_class":"UNKNOWN","rcs_meters":null,"size_class":null,"mass_kg":null,"dimensions":null,"purposes":["comms"],"wikipedia_slug":null,"has_3d_model":false,"image_url":null,"decayed_at":null,"tle_current":{"epoch":"2026-09-19T01:27:17.721792Z","epoch_age_seconds":193830,"freshness":"STALE","line1":"1 53024U 22076AQ  26262.06062178  .00000890  00000+0  36413-4 0  9996","line2":"2 53024  53.1606 288.1234 0001254  90.2755 269.8392 15.35393276232285","mean_motion":15.35393276,"eccentricity":0.0001254,"inclination_deg":53.1606,"raan_deg":288.1234,"arg_perigee_deg":90.2755,"mean_anomaly_deg":269.8392,"bstar":3.6413e-5,"rev_number":23228,"period_min":93.787046127457,"perigee_km":458.89513491331,"apogee_km":460.61007762656,"semimajor_km":6837.8896062699,"source":"CELESTRAK","updated_at":"2026-09-20T09:00:40.146615Z"}}}